Location: Hillern
(53.0557°N, 9.8577°E)
Time: 00:31:20
(UTC+00:00)

ARIANE 6 FM1 Upper Stage - Pass Details

Date: 19 May 2025
Orbit: 530 x 611 km, 62.0° (Epoch: 22 June)

Event Time Altitude Azimuth Distance (km) Brightness Sun altitude
Rises 21:58:32 0° 257° (WSW) 2,672 6.2 -15.0°
Reaches altitude 10° 22:00:50 10° 266° (W) 1,787 5.4 -15.1°
Maximum altitude 22:04:35 37° 335° (NNW) 845 4.2 -15.3°
Drops below altitude 10° 22:08:25 10° 44° (NE) 1,819 5.6 -15.5°
Sets 22:10:46 0° 53° (NE) 2,727 6.5 -15.6°
